Location: Hurstbourne Priors
(51.2000°N, 1.3667°W)
Time: 06:49:34
(UTC+00:00)

S-56A Canister/Altair - All Passes

Search period start: 20 April 2021 00:00
Search period end: 30 April 2021 00:00
Orbit: 632 x 2500 km, 38.9° (Epoch: 19 April)

Date Brightness Start Highest point End Pass type
(mag) Time Alt. Az. Time Alt. Az. Time Alt. Az.
20 Apr - 00:04:07 10° SW 00:09:02 21° S 00:12:58 10° ESE night (unlit)
20 Apr - 02:07:48 10° WSW 02:11:51 20° S 02:15:19 10° SE visible
20 Apr - 21:31:18 10° SSE 21:33:17 11° SSE 21:35:08 10° SE visible
20 Apr - 23:31:06 10° SW 23:36:29 21° S 23:40:41 10° ESE night (unlit)
21 Apr - 01:34:49 10° WSW 01:39:23 22° S 01:43:08 10° SE visible
21 Apr - 03:40:28 10° SW 03:41:49 11° SSW 03:43:06 10° S visible
21 Apr - 20:58:57 10° SSE 21:00:36 11° SSE 21:02:09 10° SE visible
21 Apr - 22:58:03 10° SSW 23:03:52 22° SSE 23:08:22 10° ESE visible
22 Apr - 01:01:46 10° WSW 01:06:54 24° S 01:10:57 10° SE night (unlit)
22 Apr - 03:07:00 10° SW 03:09:23 13° SSW 03:11:35 10° S visible
22 Apr - 20:27:05 10° SSE 20:27:53 10° SSE 20:28:40 10° SE visible
22 Apr - 22:24:58 10° SSW 22:31:14 22° SSE 22:36:02 10° ESE visible
23 Apr - 00:28:39 10° WSW 00:34:22 26° S 00:38:46 10° SE night (unlit)
23 Apr - 02:33:44 10° WSW 02:36:58 16° SSW 02:39:48 10° SSE visible
23 Apr - 21:51:51 10° SSW 21:58:33 22° SSE 22:03:40 10° ESE visible
23 Apr - 23:55:28 10° WSW 00:01:49 28° S 00:06:33 10° SE visible
24 Apr - 02:00:30 10° WSW 02:04:30 18° SSW 02:07:53 10° SSE night (unlit)
24 Apr - 21:18:43 10° SSW 21:25:48 22° SSE 21:31:15 10° ESE visible
24 Apr - 23:22:14 10° SW 23:29:13 29° S 23:34:19 10° ESE visible
25 Apr - 01:27:15 10° WSW 01:32:03 21° SSW 01:35:54 10° SSE night (unlit)
25 Apr - 20:45:35 10° SSW 20:53:02 22° SSE 20:58:47 10° ESE visible
25 Apr - 22:48:56 10° SW 22:56:34 30° S 23:02:05 10° ESE visible
26 Apr - 00:53:58 10° WSW 00:59:33 24° SSW 01:03:53 10° SE visible
26 Apr - 20:12:28 10° SSW 20:20:13 21° SSE 20:26:15 10° ESE visible
26 Apr - 22:15:35 10° SW 22:23:52 31° S 22:29:47 10° ESE visible
27 Apr - 00:20:39 10° WSW 00:27:02 27° SSW 00:31:48 10° SE visible
27 Apr - 02:28:07 10° SW 02:29:16 11° SW 02:30:22 10° SSW night (unlit)
27 Apr - 19:39:23 10° SSW 19:47:21 21° SSE 19:53:39 10° ESE daylight
27 Apr - 21:42:12 10° SW 21:51:07 32° S 21:57:27 10° ESE visible
27 Apr - 23:47:17 10° WSW 23:54:27 30° SSW 23:59:40 10° SE visible
28 Apr - 01:53:49 10° WSW 01:56:51 13° SW 01:59:30 10° S night (unlit)
28 Apr - 19:06:22 10° SSW 19:14:27 20° SSE 19:20:57 10° ESE daylight
28 Apr - 21:08:48 10° SW 21:18:18 33° S 21:25:06 10° ESE visible
28 Apr - 23:13:51 10° WSW 23:21:50 32° S 23:27:30 10° SE visible
29 Apr - 01:20:06 10° WSW 01:24:23 17° SSW 01:27:57 10° S visible
29 Apr - 18:33:25 10° S 18:41:30 19° SSE 18:48:09 10° ESE daylight
29 Apr - 20:35:24 10° SW 20:45:26 33° SSE 20:52:40 10° ESE visible
29 Apr - 22:40:22 10° WSW 22:49:08 35° S 22:55:17 10° SE visible
